Location: Certers
(42.4746°N, 1.5061°E)
Time: 00:25:41
(UTC+00:00)

Ariane Rocket - Pass Details

Date: 08 August 2025
Orbit: 754 x 765 km, 98.5° (Epoch: 16 December)

Event Time Altitude Azimuth Distance (km) Brightness Sun altitude
Exits shadow 22:25:58 27° 250° (WSW) 1,430 4.4 -27.8°
Maximum altitude 22:26:42 28° 265° (W) 1,397 4.5 -27.9°
Drops below altitude 10° 22:31:00 10° 324° (NW) 2,287 6.4 -28.2°
Sets 22:33:37 0° 336° (NNW) 3,217 7.5 -28.4°
